SCP
0 0 0 0 0 0 1 1 1 1 1 1 1 1 1 1 1 1 1 1 1 1 1 1 1 1 1 1 1 2 4 7 8 8 6 5 3 2 1 1 1 1 1
0 0 0 0 0 0 1 1 1 1 1 1 1 1 1 1 1 1 1 1 1 1 1 1 1 2 2 1 1 2 4 7 8 8 7 5 3 2 1 1 1 1 1
0 0 0 0 0 0 0 1 1 1 1 1 1 1 1 2 2 2 1 1 1 1 1 1 1 2 2 2 1 2 4 6 8 8 6 5 3 2 2 1 1 1 1
1 1 1 0 0 0 0 1 1 1 1 1 1 1 1 2 2 2 1 1 1 1 1 1 1 2 2 3 3 3 4 6 7 7 5 4 3 2 2 1 1 1 1
1 1 1 1 1 1 1 1 1 1 1 1 1 1 1 1 1 1 1 1 1 1 1 1 1 1 3 4 4 5 6 7 7 5 4 3 2 2 1 1 1 1 1
1 1 1 1 1 1 1 1 1 1 1 1 1 1 1 1 1 1 1 1 0 0 1 1 1 1 2 3 4 5 6 6 5 4 3 2 2 1 1 1 1 1 1
1 1 1 1 1 1 1 1 1 1 1 1 1 1 1 1 1 1 1 1 0 0 0 1 1 1 1 2 3 4 4 4 3 2 2 2 2 2 1 1 1 1 1
1 1 1 1 1 1 1 1 1 1 1 1 1 1 1 1 1 1 1 1 1 0 0 0 1 1 1 1 2 2 2 2 1 1 1 1 2 2 2 1 1 1 1
1 1 1 1 1 1 1 1 1 1 1 1 0 0 0 0 0 0 0 0 1 1 0 0 1 1 1 1 1 1 1 1 1 1 1 1 1 1 1 1 1 1 1
1 1 1 1 1 1 1 1 1 1 1 0 0 0 0 0 0 0 0 0 0 1 1 0 1 1 1 1 1 1 1 1 0 0 1 1 1 1 1 1 1 1 1
1 1 1 1 1 1 1 1 1 1 0 0 0 0 0 0 0 0 0 0 0 0 1 1 1 1 1 1 1 1 0 0 0 0 0 1 1 1 1 1 1 1 1
1 1 1 1 1 1 1 0 0 0 0 0 0 0 0 0 0 0 0 0 0 0 1 1 1 1 1 1 1 1 0 0 0 0 0 1 1 1 1 1 1 1 0
1 1 1 1 1 1 0 0 0 0 0 0 0 0 0 0 0 0 0 0 0 0 0 1 1 0 0 0 0 0 0 0 0 0 0 1 1 1 1 1 0 0 0
1 1 1 1 1 1 0 0 0 0 0 0 0 0 0 0 0 0 0 0 0 0 0 0 0 0 0 0 0 0 0 0 0 0 0 0 1 1 1 1 1 0 0
1 1 1 1 1 1 0 0 0 0 0 0 0 0 0 0 0 0 0 0 0 0 0 0 0 0 0 0 0 0 0 0 0 0 0 0 1 1 1 1 1 1 1
0 1 1 1 1 1 0 0 0 0 0 0 0 0 0 0 0 0 0 0 0 0 0 0 0 0 0 0 0 0 0 0 0 0 0 0 0 1 1 1 1 1 1
0 1 1 1 1 1 0 0 0 0 0 0 0 0 0 0 0 0 0 0 0 0 0 0 0 0 0 0 0 0 0 0 0 0 0 0 0 0 0 0 0 1 1
0 1 1 1 1 1 0 0 0 0 0 0 0 0 0 0 0 0 0 0 0 0 0 0 0 0 0 0 0 0 0 0 0 0 0 0 0 0 0 0 0 0 0
1 1 1 2 1 1 0 0 0 0 0 0 0 0 0 0 0 0 0 0 0 0 0 0 0 0 0 0 0 0 0 0 0 0 0 0 0 0 0 0 0 0 0
1 1 2 2 2 1 0 0 0 0 0 0 0 0 0 0 0 0 0 0 0 0 0 0 0 0 0 0 0 0 0 0 0 0 0 0 0 0 0 0 0 0 0
2 2 2 2 2 1 1 0 0 0 0 0 0 0 0 0 0 0 0 0 0 0 0 0 0 0 0 0 0 0 0 0 0 0 0 0 0 0 0 0 0 0 0
2 2 2 2 3 2 1 0 0 0 0 0 0 0 0 0 0 0 0 0 0 0 0 0 0 0 0 0 0 0 0 0 0 0 0 0 0 0 0 0 0 0 0
1 2 2 2 3 3 2 0 0 0 0 0 0 0 0 0 0 0 0 0 0 0 0 0 0 0 0 0 0 0 0 0 0 0 0 0 0 0 0 0 0 0 0
1 1 2 2 3 3 2 1 0 0 0 0 0 0 0 0 0 0 0 0 0 0 0 0 0 0 0 0 0 0 0 0 0 0 0 0 0 0 0 0 0 0 0
1 1 1 2 3 3 2 1 0 0 0 0 0 0 0 0 0 0 0 0 0 0 0 0 0 0 0 0 0 0 0 0 0 0 0 0 0 0 0 0 0 0 0
1 1 1 2 2 3 3 1 1 0 0 0 0 0 0 0 0 0 0 0 0 0 0 0 0 0 0 0 0 0 0 0 0 0 0 0 0 0 0 0 0 0 0
Wind_Speed
1 2 1 2 3 4 5 6 6 7 8 8 9 8 8 8 8 8 9 8 8 8 8 8 7 7 6 5 5 6 6 7 8 7 7 6 6 7 6 5 5 3 5
1 1 0 3 4 4 5 6 6 7 8 8 8 8 8 8 8 8 8 8 8 8 8 8 8 7 6 5 5 6 7 7 7 7 7 6 6 6 6 5 5 3 5
1 0 1 3 4 5 6 6 7 7 8 8 8 9 9 9 8 9 8 8 8 8 8 8 9 8 8 8 7 7 8 8 8 8 6 3 3 5 6 5 5 5 5
2 1 1 3 4 5 6 7 7 8 8 9 9 9 9 9 9 9 9 9 9 9 9 9 9 9 9 9 9 9 10 9 9 8 4 3 2 5 5 5 5 5 5
2 1 1 4 5 5 6 7 7 8 8 9 9 10 10 10 9 9 9 9 9 9 9 9 9 9 9 10 10 10 10 10 9 7 4 3 2 4 5 5 5 5 5
2 2 2 4 5 5 6 6 7 8 8 9 9 10 10 10 10 10 10 9 9 9 9 9 9 9 9 10 10 10 10 10 8 5 4 3 2 4 5 6 6 5 5
2 2 2 3 4 4 6 6 7 8 8 9 9 9 9 10 10 10 10 10 10 10 9 9 9 9 10 10 10 10 10 10 6 4 3 3 3 6 6 6 6 6 5
3 2 2 3 4 5 6 7 7 8 8 9 9 9 9 10 10 10 10 10 10 10 10 10 9 9 10 10 10 10 9 8 6 4 3 2 4 6 6 6 6 6 6
3 3 3 3 4 6 7 7 8 9 9 9 9 9 9 9 9 9 9 9 9 9 9 9 9 10 9 9 9 9 9 9 5 3 3 2 5 6 7 6 6 6 6
3 3 3 4 5 5 4 7 8 8 9 9 8 8 8 9 9 9 8 8 9 9 9 9 9 9 9 9 9 9 9 7 4 4 3 3 6 7 7 7 6 6 6
3 3 3 3 4 4 4 5 6 7 8 8 7 8 8 5 5 5 7 8 9 9 9 9 9 9 9 9 9 9 7 3 3 3 2 5 6 6 6 6 6 6 6
1 2 2 3 3 3 3 4 3 4 4 4 4 4 4 4 4 5 7 9 9 9 9 10 10 9 7 4 6 7 3 3 3 2 2 5 5 6 7 7 7 6 6
2 1 2 2 3 3 2 2 2 2 3 3 4 4 3 3 3 4 3 4 5 6 5 6 6 4 4 3 3 3 3 3 2 2 3 6 6 7 7 7 7 6 6
3 2 2 2 3 2 2 2 2 2 2 2 2 3 3 2 3 2 2 3 3 2 3 3 3 4 4 4 4 4 4 3 3 2 3 7 7 7 8 7 7 6 5
3 2 2 2 3 2 2 2 2 2 2 2 2 2 2 2 2 2 2 2 2 2 2 3 3 4 4 4 4 4 4 4 4 4 3 7 8 8 8 9 9 8 6
3 3 3 3 2 3 2 2 2 2 2 2 2 2 2 2 1 2 2 2 2 2 2 2 3 3 3 3 4 4 4 4 4 4 4 5 8 9 9 9 9 9 9
3 3 3 3 3 3 3 2 2 2 2 2 2 2 2 2 2 2 2 2 2 2 2 2 3 3 3 4 4 4 4 4 4 4 4 3 4 7 9 9 9 9 9
3 3 3 3 3 3 2 2 2 2 2 2 2 2 2 3 2 2 2 2 2 2 2 2 3 3 3 3 3 3 3 3 4 4 4 4 4 4 6 9 9 9 9
4 4 4 3 3 3 2 2 2 2 2 2 2 2 2 3 3 3 2 2 2 2 2 2 3 2 2 3 2 3 3 3 3 4 4 5 4 4 4 7 10 10 9
4 4 4 3 3 3 2 2 2 3 2 2 2 2 3 3 3 3 3 3 3 3 3 3 3 3 2 2 3 3 3 3 3 3 4 4 4 5 5 5 5 6 9
3 4 4 4 3 3 2 2 1 1 1 1 2 3 3 3 3 3 3 3 3 2 2 2 2 3 3 2 3 3 3 3 3 3 3 3 4 4 5 5 4 4 4
3 3 3 3 3 3 2 2 2 2 1 1 1 2 2 3 2 3 3 2 2 2 3 3 2 2 2 2 2 2 2 3 3 3 3 3 4 3 4 5 4 4 4
3 3 3 3 3 3 3 2 2 2 2 2 2 2 2 3 3 3 3 2 2 2 2 2 2 3 2 2 2 2 2 1 2 2 3 3 3 3 3 3 4 4 4
4 3 3 3 3 2 3 4 4 3 2 1 1 1 2 3 3 3 2 2 2 2 2 2 2 1 2 1 1 2 2 2 1 1 2 2 3 3 3 3 3 4 4
3 3 3 4 3 3 3 4 4 3 2 1 1 2 2 2 2 2 2 2 2 2 2 2 2 2 2 2 1 1 1 2 1 1 1 2 2 2 2 2 2 3 3
3 3 3 4 3 3 3 4 4 4 3 3 2 2 1 1 2 2 2 2 2 2 2 2 2 3 2 2 1 1 1 1 1 1 1 1 2 2 2 2 2 2 3
Wind_Direction
288 292 315 82 77 72 72 70 70 74 78 79 81 79 78 83 86 85 83 80 81 79 77 76 77 80 87 97 111 119 115 112 110 106 103 101 103 106 106 101 98 90 98
218 278 214 90 80 75 75 76 75 78 81 81 82 80 79 83 88 88 85 81 79 77 75 71 70 74 77 79 98 117 122 116 110 104 98 93 98 103 105 103 100 99 103
103 11 126 99 88 82 77 76 80 80 82 83 83 83 83 83 84 86 85 83 79 76 76 70 68 68 68 72 89 105 114 113 107 100 89 71 80 99 102 104 104 103 103
99 73 90 98 93 88 80 77 80 84 84 85 85 82 81 82 81 83 83 81 79 76 75 73 71 69 69 71 81 95 103 104 102 95 76 62 61 93 96 97 103 103 102
78 61 77 95 97 95 89 84 84 87 87 85 83 81 79 81 80 80 81 79 75 73 74 74 73 70 69 71 77 87 94 97 94 82 69 58 53 87 91 92 92 95 94
76 50 56 90 97 101 102 97 91 90 89 86 83 82 80 79 78 76 76 76 73 73 74 72 72 74 75 77 78 82 88 90 81 69 61 54 56 83 85 83 79 84 85
71 43 44 76 92 101 108 104 98 93 90 86 83 79 77 76 74 71 71 71 72 73 73 71 70 72 74 78 79 81 84 84 78 71 59 50 64 78 79 75 74 71 73
82 52 40 63 68 89 107 108 99 90 88 86 80 74 72 71 69 67 67 68 70 72 70 70 68 69 72 76 78 80 84 84 75 67 56 48 75 79 76 73 69 63 63
69 57 37 34 44 71 90 92 86 83 81 81 77 73 69 68 68 65 64 64 66 69 69 68 67 66 67 70 74 76 80 77 68 55 52 47 72 77 75 72 68 63 58
58 53 48 42 43 48 59 73 73 73 74 72 69 65 62 59 58 57 56 60 63 64 64 65 66 63 62 64 69 73 75 69 57 48 35 49 64 69 69 67 66 65 59
57 44 52 53 48 51 56 65 64 65 63 60 55 54 48 39 39 42 46 57 59 58 58 60 62 63 60 58 64 69 67 56 54 43 32 49 57 65 67 65 59 64 60
94 53 52 61 57 55 63 61 53 55 50 48 45 43 38 33 33 41 40 48 52 54 54 56 58 56 54 47 53 59 52 51 51 37 38 50 60 67 70 64 56 62 63
154 113 84 77 71 71 66 67 58 54 51 46 44 45 44 39 31 36 34 33 40 47 41 44 47 45 50 50 49 50 49 47 39 26 31 50 61 66 66 62 58 60 62
141 142 116 103 93 83 80 74 71 65 61 54 45 51 54 44 34 33 38 30 35 36 41 45 48 46 49 49 54 56 51 47 37 24 30 46 51 55 59 57 55 58 62
155 151 141 129 114 98 88 81 80 68 65 56 50 49 66 62 44 33 32 37 33 35 45 50 52 53 51 46 50 59 54 49 42 32 25 42 47 48 51 53 53 51 54
167 165 152 137 123 108 100 91 87 80 72 59 48 44 61 69 62 49 40 39 33 36 42 54 61 66 62 57 53 53 53 49 46 40 32 30 37 45 48 50 50 50 48
171 161 153 149 127 118 111 103 91 82 79 66 50 48 61 68 71 67 58 44 30 40 55 60 53 60 63 58 52 49 49 42 41 35 31 27 21 31 38 44 46 47 43
158 153 162 153 138 130 123 114 98 87 79 63 54 53 57 62 70 71 61 44 37 52 58 70 59 61 57 55 52 44 42 39 38 36 34 29 23 22 24 35 42 44 41
162 156 151 140 136 134 127 107 91 81 75 65 61 55 54 60 64 71 62 42 47 62 57 68 62 71 65 53 59 54 41 41 36 41 38 32 27 27 25 28 34 36 37
141 142 139 130 124 118 101 81 71 63 54 54 61 59 63 61 62 70 66 47 58 70 58 56 68 62 66 57 67 56 39 37 38 41 38 35 33 32 31 31 25 21 29
112 126 140 137 135 129 117 112 100 85 45 44 50 55 61 64 64 68 63 48 58 73 74 73 78 69 50 43 66 41 23 35 41 34 30 37 32 30 33 32 25 20 15
139 139 142 149 149 144 139 142 144 138 109 92 57 51 51 64 67 78 77 62 57 76 68 60 68 73 47 41 83 86 25 3 8 22 27 34 27 28 32 29 27 24 19
152 165 164 165 153 144 133 111 88 70 60 49 37 35 29 53 64 69 76 73 62 76 83 69 69 89 76 27 51 104 120 219 319 348 17 26 21 26 18 17 27 21 20
180 169 159 150 140 138 135 129 129 128 129 149 141 86 50 48 55 62 72 74 68 70 76 67 70 80 102 75 21 42 99 141 136 329 338 2 15 24 11 14 15 15 15
164 147 148 136 130 128 129 135 133 119 121 101 92 85 67 47 47 52 66 71 66 60 66 64 66 72 90 112 96 74 63 57 83 139 286 329 352 358 357 4 10 7 8
141 133 136 138 135 137 134 129 134 131 122 111 101 100 74 54 42 47 65 63 66 66 67 68 73 78 74 84 83 85 114 118 153 135 188 294 318 317 335 359 6 352 356